Overview Statistics Trail Chart Weather Telemetry Raw packets
 

This is the latest recevied weather packets stored in our database for station/object KI5RAB. If no packets are shown the sender has not sent any weather packets the latest 10 day(s).

<< 80 81 82 83 84 85 86 >>
Time Temp. Humidity Pressure Rain* Wind** Luminosity Snow
1788114530 34.44° C 53% 1019.4 hPa 0 mm - 818 W/m² -
1788114226 33.89° C 55% 1019.8 hPa 0 mm - 702 W/m² -
1788113922 33.33° C 56% 1019.8 hPa 0 mm - 798 W/m² -
1788113617 33.33° C 58% 1020 hPa 0 mm - 215 W/m² -
1788113316 33.33° C 57% 1019.8 hPa 0 mm - 228 W/m² -
1788113011 33.89° C 55% 1020 hPa 0 mm - 365 W/m² -
1788112711 34.44° C 54% 1020 hPa 0 mm - 778 W/m² -
1788112405 33.89° C 57% 1020.2 hPa 0 mm - 775 W/m² -
1788112100 33.89° C 55% 1020.2 hPa 0 mm - 759 W/m² -
1788111795 33.33° C 58% 1020.3 hPa 0 mm - 765 W/m² -
1788111495 32.78° C 57% 1020.3 hPa 0 mm - 822 W/m² -
1788111191 32.78° C 59% 1020.3 hPa 0 mm - 761 W/m² -
1788110882 31.67° C 61% 1020.4 hPa 0 mm - 744 W/m² -
1788110578 32.78° C 59% 1020.4 hPa 0 mm - 674 W/m² -
1788110274 32.78° C 59% 1020.5 hPa 0 mm - 719 W/m² -
1788109969 32.22° C 62% 1020.6 hPa 0 mm - 721 W/m² -
1788109663 32.22° C 62% 1020.7 hPa 0 mm - 704 W/m² -
1788109363 31.67° C 62% 1020.6 hPa 0 mm - 732 W/m² -
1788109061 31.67° C 64% 1020.6 hPa 0 mm - 206 W/m² -
1788108757 32.22° C 62% 1020.6 hPa 0 mm - 702 W/m² -
1788108454 31.67° C 63% 1020.7 hPa 0 mm - 715 W/m² -
1788108149 32.78° C 63% 1020.7 hPa 0 mm - 653 W/m² -
1788107846 32.22° C 63% 1020.8 hPa 0 mm - 655 W/m² -
1788107542 31.67° C 63% 1020.8 hPa 0 mm - 659 W/m² -
1788107236 31.67° C 64% 1020.5 hPa 0 mm - 622 W/m² -

* Rain latest hour (hover to see other rain measurements)
** Current wind speed in m/s (hover to see current wind gust speed)